Location: Hoyos del Collado
(40.3594°N, 5.2003°W)
Time: 23:58:52
(UTC+00:00)

USA 229 - Pass Details

Date: 28 July 2024
Orbit: 856 x 1355 km, 63.4° (Epoch: 26 June)

Event Time Altitude Azimuth Distance (km) Brightness Sun altitude
Rises 03:30:33 0° 328° (NNW) 3,880 6.8 -17.0°
Reaches altitude 10° 03:34:15 10° 348° (NNW) 3,021 6.5 -16.5°
Maximum altitude 03:38:56 18° 28° (NNE) 2,597 6.7 -15.9°
Drops below altitude 10° 03:43:54 10° 68° (ENE) 3,244 7.4 -15.2°
Sets 03:48:03 0° 87° (E) 4,285 7.7 -14.6°
